Showing default

BEIDOU 1D, 30323

Orbit data source: Space-Track

BEIDOU 1D, 30323 is a payload satellite owned by CNSA (CN) in GEO that was launched on Fri, 02 Feb 2007 UTC via a CHANG ZHENG 3A launch vehicle from the Xichang Space Center, China (XSC). Payload-class satellites include a variety of spacecraft equipped with specific instruments for various scientific and technological missions. These include communications satellites like Starlink; space stations such as the ISS; scientific satellites like the Hubble; Earth observation satellites from companies like Planet Labs, Umbra, and HawkEye 360; GPS; miniature CubeSats for education and research; and military/defense satellites.

Not visible in the next 10 days
Identifier
30323, 2007-003A
Orbit
GEO
Country
Flag of CNCN / PRC
Related business
Manufacturer
CAST
Mission
Non-operational Defense Navigation
Bus & Motor
DFH-3, FY-25
Mass
2,299 kg wet, 1,300 kg dry
Launch date (UTC)
2007-02-02 (19 years ago)
Launch vehicle
CHANG ZHENG 3A
Launch site
Xichang Space Center, China (XSC)
Object type
Payload
Rocket body
Debris
Shape & HBR
Box + 2 Pan, 9.0 m
Radar Cross Section
13.998 m², Large (>1 m²)

Expand to show TLE details & history
Last TLE update: 12 hours ago

TLE from 12 hours ago
0 BEIDOU 1D
1 30323U 07003A   25310.92923066 -.00000221  00000-0  00000+0 0  9994
2 30323   9.3694  59.2782 0055206 264.9417 175.8596  0.99156153 68507
Epoch: 2025-11-06T22:18Z
TLE epoch observation values (Epoch: 2025-11-06T22:18:05.529Z)
Latitude
9.24901°
Longitude
119.07882°
Altitude
36,333.775 km
Speed
3.047 km/s
True Right ascension
09h 19m 55s
True Declination
9° 14' 24"
Sunlit
Object was in daylight at epoch
Visualization orbit readout
Latitude
Unknown
Longitude
Unknown
Altitude
Unknown
Speed
Unknown
Apparent Right ascension
Unknown
Apparent Declination
Unknown
Sunlit
N/A
Visualization observer readout
Local Sidereal Time
06:35:12
Azimuth
Unknown
Elevation
Unknown
Doppler factor
Unknown
Orbital elements
Apogee altitude
36,337.82 km
Perigee altitude
35,868.774 km
Semi-major axis
42,481.434 km
Eccentricity
0.00552
Inclination
9.3694°
RAAN
59.2782°
Arg. of periapsis
264.9417°
True anomaly
175.90496°
Mean anomaly
175.8596°
Eccentric anomaly
175.88231°
Mean motion
0.24788 °/min
Orbital period
1,452.31 mins
BSTAR
0
Loading maneuver chart data...
Computing Atmospheric mass density...
Loading historical data...
Loading historical data...
Loading historical data...
Loading historical data...
Loading historical data...
Loading historical data...
Loading historical data...

Documentation

Showing up to 5 results
|